Simultaneous Nadir Overpasses (SNOs) Predictions

Prediction of SNOs between GOES-16 and AQUA Satellite Orbit:

Table of predicted SNOs for the next 14.0 days since TLE Epoch: 7/25/2020
Index Date Time (GOES-16) GOES-16 Lat,Lon AQUA Lat,Lon Distance(km) Time Diff (sec)
1 07/25/2020 06:26:13 -0.02, -75.20 -0.61, -72.38 319.64 80
2 07/25/2020 18:44:57 0.02, -75.20 -0.49, -77.57 270.64 80
3 07/27/2020 18:35:26 0.02, -75.20 0.15, -74.62 65.83 80
4 07/29/2020 18:23:15 0.03, -75.20 0.79, -71.67 402.59 80
5 07/30/2020 06:41:51 -0.03, -75.21 0.30, -76.83 183.72 80
6 08/01/2020 06:32:20 -0.03, -75.22 -0.35, -73.87 153.59 80
7 08/01/2020 18:51:04 0.04, -75.22 -0.75, -79.06 436.55 80
8 08/03/2020 06:20:08 -0.03, -75.23 -0.94, -70.91 491.58 80
9 08/03/2020 18:38:52 0.04, -75.24 -0.17, -76.10 98.32 80
10 08/05/2020 18:29:21 0.04, -75.27 0.49, -73.15 240.90 80
11 08/06/2020 06:47:57 -0.04, -75.28 0.59, -78.31 344.54 80
